sat.trackr.live / text

‹ back to catalog

HAWK-10C

NORAD 60575 · 2024-149DM

PAYLOAD ACTIVE UNKNOWN

§ Identity

Operator
Country
US
Launch date
2024-08-16
Launch site
AFWTR
Launch vehicle
Mass (kg)
RCS (m²)

External: N2YO · Heavens-Above · Gunter

§ Orbital elements

Epoch: 2026-09-22T17:10:36.284736Z

Period
96.21 min
Inclination
97.6657°
Eccentricity
0.0004656
Mean motion
14.96743695 rev/d
Perigee alt
573.7 km
Apogee alt
580.2 km
Semi-major
6,955.1 km
B*
3.3693e-5
RAAN
338.4193°
Arg perigee
90.4609°
Mean anomaly
269.7146°
Rev number
11,457

§ Raw data

HAWK-10C1 60575U 24149DM  26265.71569774  .00000328  00000+0  33693-4 0  99902 60575  97.6657 338.4193 0004656  90.4609 269.7146 14.96743695114572

JSON: /api/v1/satellites/60575 · /tle

For live sub-satellite position, see the globe view (requires WebGL).

§ Visibility from observer

Set your observer location to see the next 7 days of passes ≥ 10°. The values pass through the URL so the page stays shareable.

No JS? Fill the form by hand. The geolocation button needs JavaScript.